Location: ???????
(55.4362°N, 38.1183°E)
Time: 16:19:08
(UTC+00:00)

Cosmos 1356 - Pass Details

Date: 17 June 2021
Orbit: 438 x 439 km, 81.1° (Epoch: 29 July)

Event Time Altitude Azimuth Distance (km) Brightness Sun altitude
Exits shadow 22:46:06 14° 197° (SSW) 1,335 5.1 -9.4°
Maximum altitude 22:48:58 82° 284° (WNW) 452 3.4 -9.3°
Drops below altitude 10° 22:52:23 10° 13° (NNE) 1,566 7.8 -9.2°
Sets 22:54:27 0° 14° (NNE) 2,441 9.5 -9.1°
